• In Hungary
  • List of Countries
  • For 7 days
  • Water Temperature
  • Satellite Maps
  • Weather Map
  • News
  • Weather Widgets
  • user-avatar
    Login

    Hourly Weather Veszprem

    Today, 23 November, Thursday

    Time Temperature Precipitation Wind Pressure Humidity
    00:00 +6°C° 0 mm 2 mps 739 mmHg 90%
    01:00 +6°C° 0 mm 2 mps 739 mmHg 90%
    02:00 +6°C° 0 mm 2 mps 739 mmHg 91%
    03:00 +5°C° 0 mm 2 mps 739 mmHg 91%
    04:00 +5°C° 0 mm 2 mps 739 mmHg 92%
    05:00 +5°C° 0 mm 2 mps 739 mmHg 93%
    06:00 +5°C° 0 mm 2 mps 739 mmHg 93%
    07:00 +5°C° 0 mm 2 mps 739 mmHg 94%
    08:00 +5°C° 0 mm 3 mps 739 mmHg 89%
    09:00 +8°C° 0 mm 3 mps 740 mmHg 85%
    10:00 +8°C° 0 mm 4 mps 740 mmHg 81%
    11:00 +10°C° 0 mm 4 mps 740 mmHg 76%
    12:00 +12°C° 0 mm 5 mps 740 mmHg 71%
    13:00 +13°C° 0 mm 5 mps 740 mmHg 67%
    14:00 +12°C° 0 mm 4 mps 740 mmHg 71%
    15:00 +11°C° 0 mm 4 mps 740 mmHg 75%
    16:00 +11°C° 0 mm 3 mps 740 mmHg 79%
    17:00 +10°C° 0 mm 3 mps 740 mmHg 80%
    18:00 +9°C° 0 mm 3 mps 741 mmHg 82%
    19:00 +9°C° 0 mm 3 mps 741 mmHg 84%
    20:00 +8°C° 0 mm 3 mps 741 mmHg 86%
    21:00 +8°C° 0 mm 3 mps 741 mmHg 87%
    22:00 +7°C° 0 mm 2 mps 741 mmHg 88%
    23:00 +7°C° 0 mm 2 mps 741 mmHg 90%

    Tomorrow, 24 November, Friday

    Time Temperature Precipitation Wind Pressure Humidity
    00:00 +6°C° 0 mm 2 mps 741 mmHg 92%
    01:00 +6°C° 0 mm 2 mps 742 mmHg 93%
    02:00 +6°C° 0 mm 2 mps 741 mmHg 94%
    03:00 +5°C° 0 mm 2 mps 741 mmHg 94%
    04:00 +6°C° 0 mm 1 mps 741 mmHg 95%
    05:00 +6°C° 0 mm 1 mps 742 mmHg 94%
    06:00 +6°C° 0 mm 1 mps 742 mmHg 94%
    07:00 +6°C° 0 mm 1 mps 742 mmHg 94%
    08:00 +7°C° 0 mm 1 mps 742 mmHg 89%
    09:00 +8°C° 0 mm 1 mps 742 mmHg 85%
    10:00 +9°C° 0 mm 1 mps 743 mmHg 81%
    11:00 +10°C° 0 mm 1 mps 742 mmHg 76%
    12:00 +11°C° 0 mm 1 mps 742 mmHg 72%
    13:00 +12°C° 0 mm 1 mps 742 mmHg 68%
    14:00 +11°C° 0 mm 1 mps 742 mmHg 71%
    15:00 +10°C° 0 mm 1 mps 742 mmHg 75%
    16:00 +9°C° 0 mm 1 mps 742 mmHg 79%
    17:00 +8°C° 0 mm 2 mps 742 mmHg 82%
    18:00 +7°C° 0 mm 2 mps 742 mmHg 84%
    19:00 +7°C° 0 mm 2 mps 742 mmHg 87%
    20:00 +7°C° 0 mm 2 mps 742 mmHg 89%
    21:00 +6°C° 0 mm 2 mps 742 mmHg 90%
    22:00 +6°C° 0 mm 2 mps 742 mmHg 91%
    23:00 +6°C° 0 mm 2 mps 742 mmHg 92%

    Day after tomorrow, 25 November, Saturday

    Time Temperature Precipitation Wind Pressure Humidity
    00:00 +6°C° 0 mm 2 mps 742 mmHg 92%
    01:00 +6°C° 0 mm 2 mps 742 mmHg 93%
    02:00 +5°C° 0 mm 3 mps 741 mmHg 93%
    03:00 +4°C° 0 mm 3 mps 741 mmHg 94%
    04:00 +4°C° 0 mm 3 mps 740 mmHg 94%
    05:00 +4°C° 0 mm 3 mps 740 mmHg 93%
    06:00 +4°C° 0 mm 3 mps 740 mmHg 93%
    07:00 +5°C° 0 mm 4 mps 740 mmHg 93%
    08:00 +6°C° 0 mm 4 mps 740 mmHg 87%
    09:00 +7°C° 0 mm 5 mps 739 mmHg 80%
    10:00 +9°C° 0 mm 6 mps 739 mmHg 74%
    11:00 +10°C° 0 mm 6 mps 739 mmHg 70%
    12:00 +11°C° 0 mm 7 mps 738 mmHg 66%
    13:00 +12°C° 0 mm 7 mps 737 mmHg 61%
    14:00 +11°C° 0 mm 7 mps 737 mmHg 63%
    15:00 +11°C° 0 mm 6 mps 736 mmHg 65%
    16:00 +10°C° 0 mm 6 mps 736 mmHg 67%
    17:00 +10°C° 0 mm 6 mps 736 mmHg 69%
    18:00 +10°C° 0 mm 6 mps 736 mmHg 70%
    19:00 +10°C° 0 mm 6 mps 736 mmHg 71%
    20:00 +9°C° 0.8 mm 5 mps 736 mmHg 76%
    21:00 +10°C° 0.8 mm 3 mps 736 mmHg 81%
    22:00 +10°C° 0.8 mm 2 mps 737 mmHg 85%
    23:00 +9°C° 1.1 mm 2 mps 737 mmHg 87%

    26 November, Sunday

    Time Temperature Precipitation Wind Pressure Humidity
    00:00 +9°C° 1.1 mm 2 mps 737 mmHg 89%
    01:00 +10°C° 1.1 mm 1 mps 738 mmHg 90%
    02:00 +8°C° 0.2 mm 3 mps 738 mmHg 82%
    03:00 +7°C° 0.2 mm 5 mps 738 mmHg 73%
    04:00 +6°C° 0.2 mm 7 mps 738 mmHg 64%
    05:00 +5°C° 0.2 mm 7 mps 739 mmHg 63%
    06:00 +5°C° 0.2 mm 7 mps 739 mmHg 63%
    07:00 +4°C° 0.2 mm 7 mps 740 mmHg 62%
    08:00 +4°C° 0.1 mm 7 mps 740 mmHg 62%
    09:00 +4°C° 0.1 mm 8 mps 741 mmHg 62%
    10:00 +4°C° 0.1 mm 8 mps 741 mmHg 62%
    11:00 +4°C° 0.1 mm 8 mps 741 mmHg 64%
    12:00 +3°C° 0.1 mm 9 mps 741 mmHg 65%
    13:00 +3°C° 0.1 mm 9 mps 741 mmHg 67%
    14:00 +2°C° 0.1 mm 9 mps 741 mmHg 67%
    15:00 +2°C° 0.1 mm 9 mps 741 mmHg 68%
    16:00 +1°C° 0.1 mm 9 mps 742 mmHg 69%
    17:00 +1°C° 0.1 mm 9 mps 742 mmHg 68%
    18:00 +1°C° 0.1 mm 9 mps 742 mmHg 66%
    19:00 +1°C° 0.1 mm 9 mps 743 mmHg 65%
    20:00 0°C° 0.1 mm 9 mps 743 mmHg 65%
    21:00 0°C° 0.1 mm 9 mps 743 mmHg 64%
    22:00 0°C° 0.1 mm 9 mps 743 mmHg 63%
    23:00 0°C° 0 mm 8 mps 744 mmHg 64%

    27 November, Monday

    Time Temperature Precipitation Wind Pressure Humidity
    00:00 -1°C° 0 mm 8 mps 744 mmHg 65%
    01:00 -1°C° 0 mm 8 mps 744 mmHg 66%
    02:00 -2°C° 0 mm 7 mps 744 mmHg 68%
    03:00 -2°C° 0 mm 7 mps 744 mmHg 69%
    04:00 -2°C° 0 mm 7 mps 744 mmHg 71%
    05:00 -3°C° 0 mm 6 mps 745 mmHg 71%
    06:00 -3°C° 0 mm 6 mps 745 mmHg 72%
    07:00 -3°C° 0 mm 6 mps 745 mmHg 72%
    08:00 -2°C° 0 mm 6 mps 745 mmHg 69%
    09:00 -1°C° 0 mm 7 mps 746 mmHg 65%
    10:00 0°C° 0 mm 7 mps 746 mmHg 61%
    11:00 0°C° 0 mm 7 mps 745 mmHg 59%
    12:00 +2°C° 0 mm 6 mps 745 mmHg 58%
    13:00 +2°C° 0 mm 6 mps 745 mmHg 56%
    14:00 +2°C° 0 mm 5 mps 745 mmHg 59%
    15:00 +1°C° 0 mm 4 mps 745 mmHg 63%
    16:00 +1°C° 0 mm 3 mps 745 mmHg 66%
    17:00 +1°C° 0 mm 3 mps 745 mmHg 68%
    18:00 0°C° 0 mm 3 mps 745 mmHg 70%
    19:00 +1°C° 0 mm 2 mps 745 mmHg 72%
    20:00 +1°C° 0 mm 2 mps 745 mmHg 73%
    21:00 -1°C° 0 mm 2 mps 745 mmHg 74%
    22:00 -1°C° 0 mm 2 mps 745 mmHg 75%
    23:00 -1°C° 0 mm 2 mps 744 mmHg 77%

    28 November, Tuesday

    Time Temperature Precipitation Wind Pressure Humidity
    00:00 -2°C° 0 mm 2 mps 744 mmHg 78%
    01:00 -2°C° 0 mm 2 mps 744 mmHg 79%
    02:00 -2°C° 0 mm 2 mps 744 mmHg 79%
    03:00 -2°C° 0 mm 2 mps 743 mmHg 79%
    04:00 -2°C° 0 mm 2 mps 743 mmHg 80%
    05:00 -2°C° 0 mm 2 mps 743 mmHg 80%
    06:00 -2°C° 0 mm 3 mps 743 mmHg 79%
    07:00 -2°C° 0 mm 3 mps 743 mmHg 79%
    08:00 -1°C° 0 mm 3 mps 743 mmHg 73%
    09:00 0°C° 0 mm 4 mps 743 mmHg 66%
    10:00 +1°C° 0 mm 5 mps 743 mmHg 59%
    11:00 +1°C° 0 mm 5 mps 742 mmHg 57%
    12:00 +2°C° 0 mm 5 mps 741 mmHg 55%
    13:00 +3°C° 0 mm 5 mps 741 mmHg 52%
    14:00 +3°C° 0 mm 4 mps 740 mmHg 57%
    15:00 +1°C° 0 mm 4 mps 740 mmHg 62%
    16:00 0°C° 0 mm 4 mps 740 mmHg 67%
    17:00 -1°C° 0 mm 4 mps 739 mmHg 69%
    18:00 -1°C° 0 mm 4 mps 739 mmHg 72%
    19:00 -1°C° 0 mm 4 mps 739 mmHg 74%
    20:00 -2°C° 0 mm 4 mps 739 mmHg 74%
    21:00 -2°C° 0 mm 4 mps 739 mmHg 75%
    22:00 -2°C° 0 mm 4 mps 738 mmHg 76%
    23:00 -2°C° 0 mm 4 mps 738 mmHg 76%
    Show more